Location: ?????????
(53.2086°N, 54.0693°E)
Time: 17:20:01
(UTC+00:00)

Cosmos 1992 Rocket - Pass Details

Date: 08 December 2019
Orbit: 758 x 767 km, 74.0° (Epoch: 25 January)

Event Time Altitude Azimuth Distance (km) Brightness Sun altitude
Rises 14:02:39 0° 332° (NNW) 3,235 7.4 -16.2°
Reaches altitude 10° 14:05:02 10° 331° (NNW) 2,307 6.6 -16.5°
Maximum altitude 14:10:15 72° 248° (WSW) 807 4.2 -17.3°
Drops below altitude 10° 14:15:26 10° 165° (SSE) 2,296 6.5 -18.0°
Sets 14:17:48 0° 163° (SSE) 3,219 7.2 -18.3°
